Home > Weather > Christchurch > Past weeks

Flag for New Zealand Past Weather in Christchurch, New Zealand — Yesterday and Last 2 Weeks

Now
52 °F

Cool.


Feels Like: 48 °F
Forecast: 34 / 57 °F
Wind: 10 mph from Northeast

Location: Christchurch Airport

Current Time: Jul 2, 2016 at 4:05:01 PM

Latest Report: Jul 2, 2016 at 3:30 PM


Visibility: N/A

Pressure: 30.01 "Hg

Humidity: 54%

Dew Point: 36 °F

Location of ChristchurchLocation

Past Weather in Christchurch — Graph

°F

Christchurch Temperature Yesterday

Maximum temperature yesterday: 48 °F (at 12:00 PM)
Minimum temperature yesterday: 34 °F (at 11:30 PM)
Average temperature yesterday: 42 °F

High & Low Weather Summary for the Past Weeks

 TemperatureHumidityPressure
High70 °F (Jun 22, 3:00 PM)100% (Jun 17, 7:00 PM)30.33 "Hg (Jun 17, 7:00 PM)
Low28 °F (Jun 18, 3:00 AM)52% (Jun 19, 4:30 AM)29.21 "Hg (Jun 23, 1:00 PM)
Average47 °F87%29.82 "Hg
* Reported Jun 17 3:00 PM — Jul 2 3:00 PM, Christchurch, Weather by CustomWeather, © 2016

Note: Actual official high and low records may vary slightly from our data, if they occured in-between our weather recording intervals... More about our weather records

Advertising

Christchurch Weather History for the Previous 24 Hours

Scroll right to see more
 ConditionsComfort  
Time TempWeatherWind HumidityBarometerVisibility
3:00 PM
Sat, Jul 2
52 °FCool.10 mph54%30.01 "HgN/A
2:30 PM52 °FCool.8 mph54%30.01 "HgN/A
2:00 PM52 °FCool.7 mph58%30.01 "HgN/A
1:30 PM52 °FCool.6 mph54%30.01 "HgN/A
1:00 PM50 °FCool.7 mph62%30.04 "HgN/A
12:30 PM50 °FCool.7 mph62%30.04 "HgN/A
12:00 PM48 °FCool.5 mph66%30.04 "HgN/A
11:30 AM48 °FCool.2 mph62%30.07 "HgN/A
11:00 AM46 °FCool.2 mph66%30.07 "HgN/A
10:30 AM41 °FQuite cool.No wind76%30.07 "HgN/A
10:00 AM39 °FChilly.No wind75%30.07 "HgN/A
9:30 AM32 °FChilly.2 mph87%30.07 "HgN/A
9:00 AM30 °FChilly.2 mph86%30.07 "HgN/A
8:30 AM28 °FChilly.1 mph93%30.07 "HgN/A
8:00 AM30 °FChilly.1 mph80%30.07 "HgN/A
7:30 AM30 °FChilly.2 mph80%30.07 "HgN/A
7:00 AM34 °FChilly.7 mph75%30.07 "HgN/A
6:30 AM34 °FChilly.6 mph81%30.07 "HgN/A
6:00 AM34 °FChilly.6 mph81%30.07 "HgN/A
5:30 AM34 °FChilly.6 mph87%30.07 "HgN/A
5:00 AM30 °FChilly.6 mph100%30.07 "HgN/A
4:30 AM30 °FChilly.3 mph93%30.07 "HgN/A
4:00 AM32 °FChilly.5 mph100%30.07 "HgN/A
3:30 AM32 °FChilly.6 mph93%30.07 "HgN/A
3:00 AM32 °FChilly.3 mph100%30.07 "HgN/A
2:30 AM32 °FChilly.3 mph93%30.07 "HgN/A
2:00 AM32 °FChilly.5 mph93%30.07 "HgN/A
1:30 AM32 °FChilly.5 mph100%30.07 "HgN/A
1:00 AM32 °FChilly.5 mph93%30.07 "HgN/A
12:30 AM30 °FChilly.3 mph100%30.07 "HgN/A
12:00 AM34 °FChilly.5 mph93%30.07 "HgN/A
11:30 PM
Fri, Jul 1
34 °FChilly.3 mph93%30.07 "HgN/A
11:00 PM37 °FChilly.2 mph93%30.09 "HgN/A
10:30 PM36 °FChilly.3 mph93%30.09 "HgN/A
10:00 PM37 °FChilly.3 mph87%30.09 "HgN/A
9:30 PM39 °FChilly.6 mph87%30.07 "HgN/A
9:00 PM37 °FChilly.3 mph93%30.09 "HgN/A
8:30 PM37 °FChilly.3 mph87%30.09 "HgN/A
8:00 PM41 °FQuite cool.8 mph87%30.09 "HgN/A
7:30 PM43 °FQuite cool.9 mph81%30.09 "HgN/A
7:00 PM41 °FQuite cool.9 mph81%30.09 "HgN/A
6:30 PM43 °FQuite cool.9 mph76%30.09 "HgN/A
6:00 PM41 °FQuite cool.8 mph81%30.09 "HgN/A
5:30 PM43 °FQuite cool.9 mph76%30.09 "HgN/A
5:00 PM45 °FQuite cool.10 mph71%30.09 "HgN/A
4:30 PM46 °FCool.12 mph66%30.09 "HgN/A
4:00 PM46 °FCool.13 mph66%30.09 "HgN/A
Weather by CustomWeather, © 2016

See weather overviewHow to use our weather pages